#Datum;Uhrzeit;WR;Pac;DaySum;Status;WR;Pac;DaySum;Status;Pdc1;Udc;Temp;WR;Pac;DaySum;Status;Pdc1;Udc;Temp;WR;Pac;DaySum;Status;Pdc1;Udc;Temp;WR;Pac;DaySum;Status;Pdc1;Pdc2;Udc1;Udc2;Temp;WR;Pac;DaySum;Status;Pdc1;Pdc2;Udc1;Udc2;Temp;WR;Pac;DaySum;Status;Pdc1;Udc;Temp;WR;Pac;DaySum;Status;Pdc1;Udc;Temp;WR;Pac;DaySum;Status;Pdc1;Udc;Temp
25.09.20;23:55:00;1;371;11931;0;2;0;4668;0;0;0;0;3;0;2894;0;0;0;0;4;0;3926;0;0;0;0;5;0;0;0;0;0;0;0;0;6;0;7004;0;0;0;0;0;0;7;0;5001;0;0;0;0;8;0;2272;0;0;0;0;9;0;2693;0;0;0;0
25.09.20;23:50:00;1;470;11899;0;2;0;4668;0;0;0;0;3;0;2894;0;0;0;0;4;0;3926;0;0;0;0;5;0;0;0;0;0;0;0;0;6;0;7004;0;0;0;0;0;0;7;0;5001;0;0;0;0;8;0;2272;0;0;0;0;9;0;2693;0;0;0;0
25.09.20;23:45:00;1;433;11859;0;2;0;4668;0;0;0;0;3;0;2894;0;0;0;0;4;0;3926;0;0;0;0;5;0;0;0;0;0;0;0;0;6;0;7004;0;0;0;0;0;0;7;0;5001;0;0;0;0;8;0;2272;0;0;0;0;9;0;2693;0;0;0;0
25.09.20;23:40:00;1;397;11823;0;2;0;4668;0;0;0;0;3;0;2894;0;0;0;0;4;0;3926;0;0;0;0;5;0;0;0;0;0;0;0;0;6;0;7004;0;0;0;0;0;0;7;0;5001;0;0;0;0;8;0;2272;0;0;0;0;9;0;2693;0;0;0;0
25.09.20;23:35:00;1;410;11790;0;2;0;4668;0;0;0;0;3;0;2894;0;0;0;0;4;0;3926;0;0;0;0;5;0;0;0;0;0;0;0;0;6;0;7004;0;0;0;0;0;0;7;0;5001;0;0;0;0;8;0;2272;0;0;0;0;9;0;2693;0;0;0;0
25.09.20;23:30:00;1;421;11755;0;2;0;4668;0;0;0;0;3;0;2894;0;0;0;0;4;0;3926;0;0;0;0;5;0;0;0;0;0;0;0;0;6;0;7004;0;0;0;0;0;0;7;0;5001;0;0;0;0;8;0;2272;0;0;0;0;9;0;2693;0;0;0;0
25.09.20;23:25:00;1;387;11720;0;2;0;4668;0;0;0;0;3;0;2894;0;0;0;0;4;0;3926;0;0;0;0;5;0;0;0;0;0;0;0;0;6;0;7004;0;0;0;0;0;0;7;0;5001;0;0;0;0;8;0;2272;0;0;0;0;9;0;2693;0;0;0;0
25.09.20;23:20:00;1;365;11687;0;2;0;4668;0;0;0;0;3;0;2894;0;0;0;0;4;0;3926;0;0;0;0;5;0;0;0;0;0;0;0;0;6;0;7004;0;0;0;0;0;0;7;0;5001;0;0;0;0;8;0;2272;0;0;0;0;9;0;2693;0;0;0;0
25.09.20;23:15:00;1;485;11656;0;2;0;4668;0;0;0;0;3;0;2894;0;0;0;0;4;0;3926;0;0;0;0;5;0;0;0;0;0;0;0;0;6;0;7004;0;0;0;0;0;0;7;0;5001;0;0;0;0;8;0;2272;0;0;0;0;9;0;2693;0;0;0;0
25.09.20;23:10:00;1;407;11616;0;2;0;4668;0;0;0;0;3;0;2894;0;0;0;0;4;0;3926;0;0;0;0;5;0;0;0;0;0;0;0;0;6;0;7004;0;0;0;0;0;0;7;0;5001;0;0;0;0;8;0;2272;0;0;0;0;9;0;2693;0;0;0;0
25.09.20;23:05:00;1;419;11583;0;2;0;4668;0;0;0;0;3;0;2894;0;0;0;0;4;0;3926;0;0;0;0;5;0;0;0;0;0;0;0;0;6;0;7004;0;0;0;0;0;0;7;0;5001;0;0;0;0;8;0;2272;0;0;0;0;9;0;2693;0;0;0;0
25.09.20;23:00:00;1;444;11548;0;2;0;4668;0;0;0;0;3;0;2894;0;0;0;0;4;0;3926;0;0;0;0;5;0;0;0;0;0;0;0;0;6;0;7004;0;0;0;0;0;0;7;0;5001;0;0;0;0;8;0;2272;0;0;0;0;9;0;2693;0;0;0;0
25.09.20;22:55:00;1;376;11514;0;2;0;4668;0;0;0;0;3;0;2894;0;0;0;0;4;0;3926;0;0;0;0;5;0;0;0;0;0;0;0;0;6;0;7004;2;0;0;0;0;0;7;0;5001;0;0;0;0;8;0;2272;0;0;0;0;9;0;2693;0;0;0;0
25.09.20;22:50:00;1;427;11483;0;2;0;4668;0;0;0;0;3;0;2894;0;0;0;0;4;0;3926;0;0;0;0;5;0;0;0;0;0;0;0;0;6;0;7004;2;0;0;0;0;0;7;0;5001;0;0;0;0;8;0;2272;0;0;0;0;9;0;2693;0;0;0;0
25.09.20;22:45:00;1;381;11448;0;2;0;4668;0;0;0;0;3;0;2894;0;0;0;0;4;0;3926;0;0;0;0;5;0;0;0;0;0;0;0;0;6;0;7004;2;0;0;0;0;0;7;0;5001;0;0;0;0;8;0;2272;0;0;0;0;9;0;2693;0;0;0;0
25.09.20;22:40:00;1;354;11414;0;2;0;4668;0;0;0;0;3;0;2894;0;0;0;0;4;0;3926;0;0;0;0;5;0;0;0;0;0;0;0;0;6;0;7004;2;0;0;0;0;0;7;0;5001;0;0;0;0;8;0;2272;0;0;0;0;9;0;2693;0;0;0;0
25.09.20;22:35:00;1;444;11384;0;2;0;4668;0;0;0;0;3;0;2894;0;0;0;0;4;0;3926;0;0;0;0;5;0;0;0;0;0;0;0;0;6;0;7004;2;0;0;0;0;0;7;0;5001;0;0;0;0;8;0;2272;0;0;0;0;9;0;2693;0;0;0;0
25.09.20;22:30:00;1;400;11347;0;2;0;4668;0;0;0;0;3;0;2894;0;0;0;0;4;0;3926;0;0;0;0;5;0;0;0;0;0;0;0;0;6;0;7004;2;0;0;0;0;0;7;0;5001;0;0;0;0;8;0;2272;0;0;0;0;9;0;2693;0;0;0;0
25.09.20;22:25:00;1;392;11314;0;2;0;4668;0;0;0;0;3;0;2894;0;0;0;0;4;0;3926;0;0;0;0;5;0;0;0;0;0;0;0;0;6;0;7004;2;0;0;0;0;0;7;0;5001;0;0;0;0;8;0;2272;0;0;0;0;9;0;2693;0;0;0;0
25.09.20;22:20:00;1;523;11281;0;2;0;4668;0;0;0;0;3;0;2894;0;0;0;0;4;0;3926;0;0;0;0;5;0;0;0;0;0;0;0;0;6;0;7004;2;0;0;0;0;0;7;0;5001;0;0;0;0;8;0;2272;0;0;0;0;9;0;2693;0;0;0;0
25.09.20;22:15:00;1;500;11238;0;2;0;4668;0;0;0;0;3;0;2894;0;0;0;0;4;0;3926;0;0;0;0;5;0;0;0;0;0;0;0;0;6;0;7004;2;0;0;0;0;0;7;0;5001;0;0;0;0;8;0;2272;0;0;0;0;9;0;2693;0;0;0;0
25.09.20;22:10:00;1;527;11196;0;2;0;4668;0;0;0;0;3;0;2894;0;0;0;0;4;0;3926;0;0;0;0;5;0;0;0;0;0;0;0;0;6;0;7004;2;0;0;0;0;0;7;0;5001;0;0;0;0;8;0;2272;0;0;0;0;9;0;2693;0;0;0;0
25.09.20;22:05:00;1;507;11153;0;2;0;4668;0;0;0;0;3;0;2894;0;0;0;0;4;0;3926;0;0;0;0;5;0;0;0;0;0;0;0;0;6;0;7004;2;0;0;0;0;0;7;0;5001;0;0;0;0;8;0;2272;0;0;0;0;9;0;2693;0;0;0;0
25.09.20;22:00:00;1;457;11110;0;2;0;4668;0;0;0;0;3;0;2894;0;0;0;0;4;0;3926;0;0;0;0;5;0;0;0;0;0;0;0;0;6;0;7004;2;0;0;0;0;0;7;0;5001;0;0;0;0;8;0;2272;0;0;0;0;9;0;2693;0;0;0;0
25.09.20;21:55:00;1;450;11073;0;2;0;4668;0;0;0;0;3;0;2894;0;0;0;0;4;0;3926;0;0;0;0;5;0;0;0;0;0;0;0;0;6;0;7004;2;0;0;0;0;0;7;0;5001;0;0;0;0;8;0;2272;0;0;0;0;9;0;2693;0;0;0;0
25.09.20;21:50:00;1;505;11035;0;2;0;4668;0;0;0;0;3;0;2894;0;0;0;0;4;0;3926;0;0;0;0;5;0;0;0;0;0;0;0;0;6;0;7004;2;0;0;0;0;0;7;0;5001;0;0;0;0;8;0;2272;0;0;0;0;9;0;2693;0;0;0;0
25.09.20;21:45:00;1;441;10991;0;2;0;4668;0;0;0;0;3;0;2894;0;0;0;0;4;0;3926;0;0;0;0;5;0;0;0;0;0;0;0;0;6;0;7004;2;0;0;0;0;0;7;0;5001;0;0;0;0;8;0;2272;0;0;0;0;9;0;2693;0;0;0;0
25.09.20;21:40:00;1;388;10953;0;2;0;4668;0;0;0;0;3;0;2894;0;0;0;0;4;0;3926;0;0;0;0;5;0;0;0;0;0;0;0;0;6;0;7004;2;0;0;0;0;0;7;0;5001;0;0;0;0;8;0;2272;0;0;0;0;9;0;2693;0;0;0;0
25.09.20;21:35:00;1;347;10920;0;2;0;4668;0;0;0;0;3;0;2894;0;0;0;0;4;0;3926;0;0;0;0;5;0;0;0;0;0;0;0;0;6;0;7004;2;0;0;0;0;0;7;0;5001;0;0;0;0;8;0;2272;0;0;0;0;9;0;2693;0;0;0;0
25.09.20;21:30:00;1;411;10891;0;2;0;4668;0;0;0;0;3;0;2894;0;0;0;0;4;0;3926;0;0;0;0;5;0;0;0;0;0;0;0;0;6;0;7004;2;0;0;0;0;0;7;0;5001;0;0;0;0;8;0;2272;0;0;0;0;9;0;2693;0;0;0;0
25.09.20;21:25:00;1;457;10857;0;2;0;4668;0;0;0;0;3;0;2894;0;0;0;0;4;0;3926;0;0;0;0;5;0;0;0;0;0;0;0;0;6;0;7004;2;0;0;0;0;0;7;0;5001;0;0;0;0;8;0;2272;0;0;0;0;9;0;2693;0;0;0;0
25.09.20;21:20:00;1;484;10818;0;2;0;4668;0;0;0;0;3;0;2894;0;0;0;0;4;0;3926;0;0;0;0;5;0;0;0;0;0;0;0;0;6;0;7004;2;0;0;0;0;0;7;0;5001;0;0;0;0;8;0;2272;0;0;0;0;9;0;2693;0;0;0;0
25.09.20;21:15:00;1;425;10777;0;2;0;4668;0;0;0;0;3;0;2894;0;0;0;0;4;0;3926;0;0;0;0;5;0;0;0;0;0;0;0;0;6;0;7004;2;0;0;0;0;0;7;0;5001;0;0;0;0;8;0;2272;0;0;0;0;9;0;2693;0;0;0;0
25.09.20;21:10:00;1;406;10741;0;2;0;4668;0;0;0;0;3;0;2894;0;0;0;0;4;0;3926;0;0;0;0;5;0;0;0;0;0;0;0;0;6;0;7004;2;0;0;0;0;0;7;0;5001;0;0;0;0;8;0;2272;0;0;0;0;9;0;2693;0;0;0;0
25.09.20;21:05:00;1;622;10706;0;2;0;4668;0;0;0;0;3;0;2894;0;0;0;0;4;0;3926;0;0;0;0;5;0;0;0;0;0;0;0;0;6;0;7004;2;0;0;0;0;0;7;0;5001;0;0;0;0;8;0;2272;0;0;0;0;9;0;2693;0;0;0;0
25.09.20;21:00:00;1;607;10657;0;2;0;4668;0;0;0;0;3;0;2894;0;0;0;0;4;0;3926;0;0;0;0;5;0;0;0;0;0;0;0;0;6;0;7004;2;0;0;0;0;0;7;0;5001;0;0;0;0;8;0;2272;0;0;0;0;9;0;2693;0;0;0;0
25.09.20;20:55:00;1;786;10606;0;2;0;4668;0;0;0;0;3;0;2894;0;0;0;0;4;0;3926;0;0;0;0;5;0;0;0;0;0;0;0;0;6;0;7004;2;0;0;0;0;0;7;0;5001;0;0;0;0;8;0;2272;0;0;0;0;9;0;2693;0;0;0;0
25.09.20;20:50:00;1;842;10546;0;2;0;4668;0;0;0;0;3;0;2894;0;0;0;0;4;0;3926;0;0;0;0;5;0;0;0;0;0;0;0;0;6;0;7004;2;0;0;0;0;0;7;0;5001;0;0;0;0;8;0;2272;0;0;0;0;9;0;2693;0;0;0;0
25.09.20;20:45:00;1;833;10477;0;2;0;4668;0;0;0;0;3;0;2894;0;0;0;0;4;0;3926;0;0;0;0;5;0;0;0;0;0;0;0;0;6;0;7004;2;0;0;0;0;0;7;0;5001;0;0;0;0;8;0;2272;0;0;0;0;9;0;2693;0;0;0;0
25.09.20;20:40:00;1;811;10408;0;2;0;4668;0;0;0;0;3;0;2894;0;0;0;0;4;0;3926;0;0;0;0;5;0;0;0;0;0;0;0;0;6;0;7004;2;0;0;0;0;0;7;0;5001;0;0;0;0;8;0;2272;0;0;0;0;9;0;2693;0;0;0;0
25.09.20;20:35:00;1;810;10340;0;2;0;4668;0;0;0;0;3;0;2894;0;0;0;0;4;0;3926;0;0;0;0;5;0;0;0;0;0;0;0;0;6;0;7004;2;0;0;0;0;0;7;0;5001;0;0;0;0;8;0;2272;0;0;0;0;9;0;2693;0;0;0;0
25.09.20;20:30:00;1;929;10272;0;2;0;4668;0;0;0;0;3;0;2894;0;0;0;0;4;0;3926;0;0;0;0;5;0;0;0;0;0;0;0;0;6;0;7004;2;0;0;0;0;0;7;0;5001;0;0;0;0;8;0;2272;0;0;0;0;9;0;2693;0;0;0;0
25.09.20;20:25:00;1;991;10196;0;2;0;4668;0;0;0;0;3;0;2894;0;0;0;0;4;0;3926;0;0;0;0;5;0;0;0;0;0;0;0;0;6;0;7004;2;0;0;0;0;0;7;0;5001;0;0;0;0;8;0;2272;0;0;0;0;9;0;2693;0;0;0;0
25.09.20;20:20:00;1;988;10111;0;2;0;4668;0;0;0;0;3;0;2894;0;0;0;0;4;0;3926;0;0;0;0;5;0;0;0;0;0;0;0;0;6;0;7004;2;0;0;0;0;0;7;0;5001;0;0;0;0;8;0;2272;0;0;0;0;9;0;2693;0;0;0;0
25.09.20;20:15:00;1;919;10028;0;2;0;4668;0;0;0;0;3;0;2894;0;0;0;0;4;0;3926;0;0;0;0;5;0;0;0;0;0;0;0;0;6;0;7004;2;0;0;0;0;0;7;0;5001;0;0;0;0;8;0;2272;0;0;0;0;9;0;2693;0;0;0;0
25.09.20;20:10:00;1;950;9951;0;2;0;4668;0;0;0;0;3;0;2894;0;0;0;0;4;0;3926;0;0;0;0;5;0;0;0;0;0;0;0;0;6;0;7004;2;0;0;0;0;0;7;0;5001;0;0;0;0;8;0;2272;0;0;0;0;9;0;2693;0;0;0;0
25.09.20;20:05:00;1;996;9876;0;2;0;4668;0;0;0;0;3;0;2894;0;0;0;0;4;0;3926;0;0;0;0;5;0;0;0;0;0;0;0;0;6;0;7004;2;0;0;0;0;0;7;0;5001;0;0;0;0;8;0;2272;0;0;0;0;9;0;2693;0;0;0;0
25.09.20;20:00:00;1;1027;9793;0;2;0;4668;0;0;0;0;3;0;2894;0;0;0;0;4;0;3926;0;0;0;0;5;0;0;0;0;0;0;0;0;6;0;7004;2;0;0;0;0;0;7;0;5001;0;0;0;0;8;0;2272;0;0;0;0;9;0;2693;0;0;0;0
25.09.20;19:55:00;1;1060;9709;0;2;0;4668;0;0;0;0;3;0;2894;0;0;0;0;4;0;3926;0;0;0;0;5;0;0;0;0;0;0;0;0;6;0;7004;2;0;0;0;0;0;7;0;5001;0;0;0;0;8;0;2272;0;0;0;0;9;0;2693;0;0;0;0
25.09.20;19:50:00;1;1069;9620;0;2;0;4668;0;0;0;0;3;0;2894;0;0;0;0;4;0;3926;0;0;0;0;5;0;0;0;0;0;0;0;0;6;0;7004;2;0;0;0;0;0;7;0;5001;0;0;0;0;8;0;2272;0;0;0;0;9;0;2693;0;0;0;0
25.09.20;19:45:00;1;1043;9531;0;2;0;4668;0;0;0;0;3;0;2894;0;0;0;0;4;0;3926;0;0;0;0;5;0;0;0;0;0;0;0;0;6;0;7004;2;0;0;0;0;0;7;0;5001;0;0;0;0;8;0;2272;0;0;0;0;9;0;2693;0;0;0;0
25.09.20;19:40:00;1;1133;9443;0;2;0;4668;0;0;0;0;3;0;2894;0;0;0;0;4;0;3926;0;0;0;0;5;0;0;0;0;0;0;0;0;6;0;7004;2;0;0;0;0;0;7;0;5001;0;0;0;0;8;0;2272;0;0;0;0;9;0;2693;0;0;0;0
25.09.20;19:35:00;1;939;9348;0;2;0;4668;0;0;0;0;3;0;2894;0;0;0;0;4;0;3926;0;0;0;0;5;0;0;0;0;0;0;0;0;6;0;7004;2;0;0;0;0;0;7;0;5001;0;0;0;0;8;0;2272;0;0;0;0;9;0;2693;0;0;0;0
25.09.20;19:30:00;1;928;9267;0;2;0;4668;0;0;0;0;3;0;2894;0;0;0;0;4;0;3926;0;0;0;0;5;0;0;0;0;0;0;0;0;6;0;7004;2;0;0;0;0;0;7;0;5001;0;0;0;0;8;0;2272;0;0;0;0;9;0;2693;0;0;0;0
25.09.20;19:25:00;1;1580;9189;0;2;0;4668;0;0;0;0;3;0;2894;0;0;0;0;4;0;3926;0;0;0;0;5;0;0;0;0;0;0;0;0;6;0;7004;2;0;0;0;0;0;7;0;5001;0;0;0;0;8;0;2272;0;0;0;0;9;0;2693;0;0;0;0
25.09.20;19:20:00;1;1922;9054;0;2;0;4668;0;0;0;0;3;0;2894;0;0;0;0;4;0;3926;0;0;0;0;5;0;0;0;0;0;0;0;0;6;0;7004;2;0;0;0;0;0;7;0;5001;0;0;0;0;8;0;2272;0;0;0;0;9;0;2693;0;0;0;0
25.09.20;19:15:00;1;1886;8889;0;2;0;4668;0;0;0;0;3;0;2894;0;0;0;0;4;0;3926;0;0;0;0;5;0;0;0;0;0;0;0;0;6;0;7004;2;0;0;0;0;0;7;0;5001;0;0;0;0;8;0;2272;0;0;0;0;9;0;2693;0;0;0;0
25.09.20;19:10:00;1;2314;8732;0;2;0;4668;0;0;96;7;3;0;2894;0;0;245;20;4;0;3926;0;0;0;0;5;0;0;0;0;0;0;0;0;6;0;7004;2;0;0;0;0;0;7;0;5001;0;0;0;0;8;0;2272;0;0;0;0;9;0;2693;0;0;0;0
25.09.20;19:05:00;1;1767;8544;0;2;0;4668;6;0;278;21;3;0;2894;6;0;306;23;4;0;3926;0;0;0;0;5;0;0;0;0;0;0;0;0;6;0;7004;2;0;0;0;0;2;7;0;5001;0;0;0;0;8;0;2272;0;0;0;0;9;0;2693;0;0;0;0
25.09.20;19:00:00;1;1246;8394;0;2;0;4668;6;0;292;21;3;0;2894;6;0;324;24;4;0;3926;0;0;69;15;5;0;0;0;0;0;0;0;0;6;0;7004;1;0;0;0;0;1;7;0;5001;0;0;0;0;8;0;2272;0;0;0;0;9;0;2693;0;0;0;0
25.09.20;18:55:00;1;1063;8292;0;2;0;4668;6;0;301;21;3;0;2894;6;0;346;24;4;0;3926;1;0;86;18;5;0;0;0;0;0;0;0;0;6;0;7004;2;0;0;0;0;1;7;0;5001;0;0;0;0;8;0;2272;0;0;0;0;9;0;2693;0;0;0;0
25.09.20;18:50:00;1;999;8202;0;2;0;4668;6;0;320;21;3;0;2894;6;0;388;24;4;0;3926;1;0;107;18;5;0;0;0;0;0;0;0;0;6;0;7004;0;4;1;76;133;12;7;0;5001;0;0;0;0;8;0;2272;0;0;0;0;9;0;2693;0;0;111;8
25.09.20;18:45:00;1;885;8122;0;2;0;4668;6;0;340;21;3;0;2894;4;1;411;24;4;0;3926;1;0;131;18;5;0;0;0;0;0;0;0;0;6;0;7004;23;11;4;180;447;30;7;0;5001;6;0;263;25;8;0;2272;6;0;263;24;9;0;2693;6;0;291;20
25.09.20;18:40:00;1;914;8047;0;2;0;4668;6;0;365;22;3;0;2894;3;6;405;24;4;0;3926;1;0;169;19;5;0;0;0;0;0;0;0;0;6;0;7004;23;6;2;181;524;30;7;0;5001;6;0;328;25;8;0;2272;6;0;330;24;9;0;2693;6;0;351;20
25.09.20;18:35:00;1;865;7972;0;2;0;4668;6;0;377;22;3;1;2894;6;5;437;24;4;0;3926;1;0;192;19;5;0;0;0;0;0;0;0;0;6;0;7004;23;6;2;182;547;31;7;0;5001;6;0;370;25;8;0;2272;6;0;373;24;9;0;2693;6;0;403;20
25.09.20;18:30:00;1;925;7900;0;2;0;4668;6;0;392;22;3;1;2894;6;3;462;24;4;0;3926;1;0;216;19;5;0;0;0;0;0;0;0;0;6;0;7004;23;6;2;465;566;31;7;0;5001;6;0;417;25;8;0;2272;6;0;411;24;9;0;2693;6;1;441;21
25.09.20;18:25:00;1;735;7828;0;2;0;4668;6;0;396;22;3;3;2894;6;7;458;25;4;0;3926;1;0;214;20;5;0;0;0;0;0;0;0;0;6;0;7004;1;8;0;503;570;32;7;0;5001;3;1;418;25;8;0;2272;6;0;421;24;9;0;2693;6;1;457;21
25.09.20;18:20:00;1;726;7765;0;2;0;4668;6;0;401;22;3;1;2894;6;4;490;25;4;0;3926;3;0;209;20;5;0;0;0;0;0;0;0;0;6;0;7004;8;9;1;403;576;32;7;0;5001;6;1;429;26;8;0;2272;4;0;421;24;9;0;2693;6;1;473;21
25.09.20;18:15:00;1;918;7706;0;2;0;4668;6;0;406;23;3;2;2894;6;4;495;25;4;0;3926;3;0;216;20;5;0;0;0;0;0;0;0;0;6;23;7004;1;13;7;516;489;33;7;1;5001;6;1;437;26;8;0;2272;3;1;423;24;9;1;2693;4;1;478;21
25.09.20;18:10:00;1;904;7627;0;2;3;4668;6;8;406;23;3;2;2894;3;11;486;25;4;0;3926;3;0;199;20;5;0;0;0;0;0;0;0;0;6;64;7001;4;38;28;434;399;34;7;5;5000;6;8;438;26;8;0;2272;6;1;454;24;9;4;2693;3;8;457;21
25.09.20;18:05:00;1;871;7552;0;2;20;4668;6;36;388;24;3;3;2894;6;8;514;25;4;6;3926;3;7;199;20;5;0;0;0;0;0;0;0;0;6;80;6996;4;48;35;434;399;34;7;1;5000;6;7;472;26;8;2;2272;6;3;449;24;9;1;2693;6;5;519;21
25.09.20;18:00:00;1;853;7482;0;2;51;4666;4;83;370;24;3;4;2893;6;9;527;25;4;10;3925;3;10;199;20;5;0;0;0;0;0;0;0;0;6;100;6989;4;44;32;434;399;34;7;33;5000;6;53;377;27;8;0;2272;6;4;484;25;9;7;2693;6;12;508;21
25.09.20;17:55:00;1;964;7411;0;2;55;4662;4;88;361;24;3;5;2893;6;11;524;26;4;15;3924;3;16;198;21;5;0;0;0;0;0;0;0;0;6;102;6980;4;63;46;434;399;34;7;41;4998;4;71;353;27;8;0;2272;6;5;482;25;9;7;2692;6;17;499;22
25.09.20;17:50:00;1;933;7334;0;2;65;4657;4;96;363;24;3;4;2892;6;11;531;26;4;29;3923;3;30;198;21;5;0;0;0;0;0;0;0;0;6;109;6971;4;64;49;434;399;34;7;42;4994;4;79;380;27;8;0;2272;6;0;509;25;9;2;2692;6;7;538;22
25.09.20;17:45:00;1;743;7254;0;2;83;4652;4;112;356;24;3;6;2892;6;11;536;26;4;36;3921;3;37;198;21;5;0;0;0;0;0;0;0;0;6;130;6962;4;74;59;434;399;34;7;47;4991;4;88;452;27;8;2;2272;3;7;490;25;9;5;2691;6;9;532;22
25.09.20;17:40:00;1;731;7192;0;2;77;4645;4;110;368;24;3;12;2892;3;25;512;26;4;35;3918;3;37;198;21;5;0;0;0;0;0;0;0;0;6;131;6951;4;81;66;434;399;34;7;50;4987;4;90;446;27;8;1;2272;6;7;494;25;9;10;2691;3;18;521;22
25.09.20;17:35:00;1;767;7130;0;2;73;4638;4;105;356;25;3;6;2890;6;11;534;26;4;28;3915;3;29;198;21;5;0;0;0;0;0;0;0;0;6;122;6940;4;63;52;434;399;34;7;52;4983;4;88;425;27;8;2;2272;6;6;489;25;9;8;2690;6;16;516;22
25.09.20;17:30:00;1;677;7067;0;2;92;4632;4;123;359;25;3;23;2890;6;38;514;27;4;48;3912;3;50;198;21;5;0;0;0;0;0;0;0;0;6;141;6930;4;72;59;434;399;34;7;64;4978;4;98;430;27;8;4;2271;6;6;499;26;9;10;2689;6;18;527;22
25.09.20;17:25:00;1;653;7011;0;2;109;4624;4;144;370;25;3;59;2888;4;98;476;27;4;64;3908;3;67;198;21;5;0;0;0;0;0;0;0;0;6;164;6918;4;83;65;434;399;34;7;89;4973;4;130;446;27;8;4;2271;6;9;501;26;9;16;2688;6;25;525;23
25.09.20;17:20:00;1;748;6957;0;2;119;4615;4;152;374;25;3;61;2883;4;102;500;27;4;71;3903;3;74;199;22;5;0;0;0;0;0;0;0;0;6;175;6904;4;87;69;434;399;34;7;94;4965;4;136;462;27;8;0;2271;6;0;525;26;9;9;2687;6;13;556;23
25.09.20;17:15:00;1;674;6893;0;2;107;4605;4;138;362;25;3;59;2878;4;95;468;27;4;61;3897;3;64;198;22;5;0;0;0;0;0;0;0;0;6;160;6889;4;83;66;434;399;34;7;91;4957;4;122;410;27;8;5;2271;4;9;413;21;9;8;2686;6;12;553;23
25.09.20;17:10:00;1;1479;6824;0;2;126;4596;4;158;364;25;3;71;2873;4;107;456;27;4;77;3892;3;81;201;22;5;0;0;0;0;0;0;0;0;6;177;6876;4;106;86;434;399;34;7;102;4950;4;136;399;27;8;12;2270;6;17;477;26;9;16;2686;3;23;542;23
25.09.20;17:05:00;1;853;6702;0;2;192;4586;4;228;374;26;3;109;2867;4;151;508;28;4;145;3885;5;151;223;22;5;0;0;0;0;0;0;0;0;6;293;6861;4;159;148;526;481;34;7;160;4941;4;201;444;27;8;57;2269;4;91;456;27;9;87;2684;4;115;486;24
25.09.20;17:00:00;1;981;6628;0;2;312;4570;4;353;393;26;3;186;2857;4;228;471;28;4;257;3873;5;267;230;22;5;0;0;0;0;0;0;0;0;6;488;6834;4;257;248;582;552;34;7;303;4927;4;343;477;27;8;130;2264;4;165;441;27;9;166;2677;4;199;499;24
25.09.20;16:55:00;1;2429;6549;0;2;348;4544;4;392;398;26;3;214;2842;4;257;492;28;4;290;3852;5;302;233;22;5;0;0;0;0;0;0;0;0;6;543;6793;4;316;299;586;563;34;7;351;4902;4;396;458;27;8;155;2253;4;193;458;27;9;192;2663;4;224;512;24
25.09.20;16:50:00;1;2291;6351;0;2;339;4515;4;380;395;26;3;207;2824;4;251;492;28;4;272;3827;5;283;231;22;5;0;0;0;0;0;0;0;0;6;497;6748;4;276;264;569;557;34;7;343;4873;4;379;442;27;8;149;2241;4;188;447;27;9;185;2647;4;220;508;24
25.09.20;16:45:00;1;2350;6160;0;2;382;4486;4;427;398;26;3;234;2807;4;281;508;28;4;314;3804;5;327;234;22;5;0;0;0;0;0;0;0;0;6;558;6707;4;274;261;587;558;34;7;389;4844;4;432;458;27;8;164;2228;4;210;462;27;9;207;2632;4;242;516;24
25.09.20;16:40:00;1;516;5976;0;2;452;4454;4;495;397;26;3;282;2787;4;329;501;28;4;387;3778;5;403;236;22;5;0;0;0;0;0;0;0;0;6;659;6658;4;340;303;579;495;34;7;527;4811;4;574;465;27;8;239;2214;4;278;481;27;9;284;2614;4;325;520;24
25.09.20;16:35:00;1;514;5935;0;2;242;4416;4;277;378;26;3;145;2763;4;187;502;28;4;182;3746;5;189;225;22;5;0;0;0;0;0;0;0;0;6;347;6604;4;227;173;556;413;34;7;285;4767;4;334;468;28;8;118;2194;4;160;473;27;9;160;2590;4;192;513;24
25.09.20;16:30:00;1;333;5893;0;2;306;4396;4;349;389;26;3;187;2751;4;229;505;28;4;248;3731;5;258;231;23;5;0;0;0;0;0;0;0;0;6;477;6577;4;272;257;573;553;34;7;299;4744;4;345;468;28;8;124;2185;4;165;471;27;9;164;2577;4;197;502;24
25.09.20;16:25:00;1;363;5860;0;2;366;4371;4;410;393;26;3;224;2736;4;268;508;28;4;309;3710;5;321;235;23;5;0;0;0;0;0;0;0;0;6;584;6536;4;300;289;570;559;34;7;372;4719;4;414;466;28;8;157;2174;4;195;477;27;9;196;2564;4;231;512;25
25.09.20;16:20:00;1;414;5829;0;2;337;4340;4;377;392;26;3;208;2717;4;250;499;28;4;286;3684;5;298;232;23;5;0;0;0;0;0;0;0;0;6;550;6486;4;279;269;583;556;34;7;399;4687;4;448;470;28;8;184;2161;4;219;478;27;9;221;2547;4;259;519;25
25.09.20;16:15:00;1;448;5796;0;2;237;4311;4;277;384;26;3;142;2699;4;184;499;28;4;190;3659;5;198;226;23;5;0;0;0;0;0;0;0;0;6;391;6441;4;199;186;577;541;34;7;280;4652;4;315;462;28;8;103;2145;4;144;488;27;9;149;2528;4;182;495;25
25.09.20;16:10:00;1;489;5758;0;2;247;4291;4;287;374;26;3;148;2687;4;189;506;28;4;196;3643;5;204;224;23;5;0;0;0;0;0;0;0;0;6;387;6408;4;220;206;582;546;34;7;245;4629;4;287;461;28;8;97;2136;4;139;472;27;9;136;2515;4;168;506;25
25.09.20;16:05:00;1;445;5718;0;2;346;4270;4;389;397;26;3;213;2675;4;257;500;28;4;293;3627;5;305;233;23;5;0;0;0;0;0;0;0;0;6;555;6375;4;302;282;579;549;34;7;362;4608;4;408;461;28;8;160;2128;4;198;461;27;9;196;2504;4;234;504;25
25.09.20;16:00:00;1;2145;5681;0;2;315;4242;4;357;391;26;3;195;2657;4;235;492;28;4;262;3602;5;273;230;23;5;0;0;0;0;0;0;0;0;6;503;6329;4;271;256;571;549;34;7;326;4578;4;372;471;28;8;137;2115;4;179;473;27;9;183;2487;4;216;512;25
25.09.20;15:55:00;1;4158;5525;0;2;399;4215;4;443;390;27;3;247;2641;4;294;503;28;4;348;3580;5;363;235;23;5;0;0;0;0;0;0;0;0;6;645;6286;4;330;320;581;559;34;7;446;4551;4;481;464;28;8;192;2103;4;236;469;27;9;240;2472;4;276;507;25
25.09.20;15:50:00;1;4118;5181;0;2;245;4182;4;285;384;27;3;150;2620;4;190;499;28;4;195;3552;5;204;228;23;5;0;0;0;0;0;0;0;0;6;413;6234;4;228;219;575;548;34;7;258;4514;4;299;468;28;8;98;2087;4;142;474;27;9;145;2452;4;177;501;25
25.09.20;15:45:00;1;1665;4838;0;2;235;4161;4;277;378;27;3;143;2607;4;182;490;28;4;196;3535;5;204;227;23;5;0;0;0;0;0;0;0;0;6;392;6199;4;186;180;581;549;34;7;255;4492;4;292;457;28;8;96;2079;4;139;448;27;9;136;2440;4;164;480;25
25.09.20;15:40:00;1;427;4721;0;2;238;4142;4;278;385;27;3;144;2596;4;185;484;29;4;183;3519;5;191;229;23;5;0;0;0;0;0;0;0;0;6;378;6167;4;217;210;569;541;34;7;236;4470;4;279;456;28;8;92;2071;4;134;464;27;9;133;2428;4;164;504;25
25.09.20;15:35:00;1;287;4684;0;2;262;4122;4;300;382;27;3;159;2584;4;200;499;29;4;209;3503;5;217;225;24;5;0;0;0;0;0;0;0;0;6;412;6135;4;222;210;567;539;34;7;246;4450;4;292;457;28;8;103;2063;4;141;429;27;9;135;2417;4;167;501;25
25.09.20;15:30:00;1;243;4656;0;2;369;4100;4;414;390;27;3;227;2570;4;270;497;29;4;306;3486;5;319;232;24;5;0;0;0;0;0;0;0;0;6;583;6101;4;316;312;579;557;35;7;344;4430;4;389;476;28;8;150;2054;4;192;460;27;9;187;2406;4;222;509;26
25.09.20;15:25:00;1;324;4636;0;2;544;4070;4;594;400;28;3;337;2551;4;386;504;29;4;469;3460;5;488;239;24;5;0;0;0;0;0;0;0;0;6;851;6050;4;426;403;586;563;35;7;522;4401;4;569;455;28;8;236;2042;4;282;456;27;9;281;2390;4;321;527;26
25.09.20;15:20:00;1;319;4609;0;2;665;4024;4;719;405;28;3;421;2523;4;472;507;29;4;567;3421;5;591;240;24;5;0;0;0;0;0;0;0;0;6;979;5977;4;504;476;591;567;35;7;712;4358;4;757;473;28;8;332;2022;4;378;479;27;9;381;2367;4;430;520;26
25.09.20;15:15:00;1;330;4582;0;2;476;3968;4;523;394;28;3;298;2488;4;345;504;29;4;406;3374;5;422;236;24;5;0;0;0;0;0;0;0;0;6;740;5896;4;389;365;584;552;35;7;547;4299;4;595;474;28;8;242;1994;4;291;466;27;9;294;2335;4;340;518;26
25.09.20;15:10:00;1;288;4554;0;2;394;3928;4;441;398;28;3;245;2463;4;290;495;29;4;336;3340;5;350;234;24;5;0;0;0;0;0;0;0;0;6;631;5835;4;322;311;570;558;35;7;466;4253;4;508;464;28;8;210;1974;4;250;465;27;9;248;2310;4;289;516;26
25.09.20;15:05:00;1;781;4529;0;2;475;3895;4;521;397;28;3;296;2443;4;344;500;29;4;406;3312;5;422;235;24;5;0;0;0;0;0;0;0;0;6;738;5782;4;380;358;578;563;35;7;516;4214;4;556;458;28;8;236;1956;4;272;471;27;9;278;2289;4;315;518;26
25.09.20;15:00:00;1;670;4480;0;2;341;3856;4;385;398;28;3;214;2418;4;257;497;29;4;290;3278;5;302;231;24;5;0;0;0;0;0;0;0;0;6;548;5722;4;286;275;575;551;35;7;376;4171;4;417;467;28;8;166;1937;4;199;478;27;9;208;2266;4;243;509;26
25.09.20;14:55:00;1;1224;4435;0;2;274;3828;4;314;382;28;3;167;2400;4;208;498;29;4;220;3254;5;229;226;24;5;0;0;0;0;0;0;0;0;6;431;5677;4;216;211;569;550;35;7;280;4139;4;322;472;28;8;119;1923;4;154;461;27;9;155;2249;4;188;507;26
25.09.20;14:50:00;1;216;4329;0;2;278;3805;4;319;378;28;3;171;2386;4;212;494;29;4;223;3235;5;232;228;24;5;0;0;0;0;0;0;0;0;6;434;5641;4;229;213;568;550;35;7;274;4116;4;319;452;29;8;116;1913;4;154;457;27;9;150;2236;4;183;505;26
25.09.20;14:45:00;1;253;4311;0;2;267;3782;4;307;385;28;3;163;2372;4;205;496;30;4;211;3217;5;220;226;25;5;0;0;0;0;0;0;0;0;6;415;5605;4;213;205;574;546;35;7;266;4093;4;311;466;29;8;114;1903;4;150;441;27;9;147;2224;4;179;507;26
25.09.20;14:40:00;1;234;4290;0;2;290;3759;4;332;388;29;3;180;2358;4;218;492;30;4;236;3199;5;245;228;25;5;0;0;0;0;0;0;0;0;6;454;5570;4;234;222;569;547;35;7;322;4071;4;362;461;29;8;139;1894;4;174;461;27;9;172;2211;4;205;499;27
25.09.20;14:35:00;1;245;4269;0;2;309;3735;4;351;393;29;3;190;2343;4;233;502;30;4;252;3180;5;262;229;25;5;0;0;0;0;0;0;0;0;6;474;5532;4;251;234;565;542;35;7;369;4044;4;415;457;29;8;158;1882;4;198;462;27;9;197;2197;4;232;506;27
25.09.20;14:30:00;1;304;4249;0;2;623;3709;4;677;409;30;3;389;2327;4;442;519;31;4;540;3158;5;562;239;26;5;0;0;0;0;0;0;0;0;6;941;5491;4;480;465;586;559;35;7;713;4014;4;762;471;29;8;327;1869;4;369;484;27;9;374;2181;4;417;517;27
25.09.20;14:25:00;1;306;4224;0;2;861;3661;4;922;407;30;3;547;2297;4;606;516;31;4;738;3117;5;768;242;26;5;0;0;0;0;0;0;0;0;6;1242;5412;4;639;614;602;573;35;7;953;3958;4;1016;477;29;8;458;1844;4;505;472;27;9;521;2151;4;571;522;28
25.09.20;14:20:00;1;319;4198;0;2;721;3589;4;775;402;30;3;457;2252;4;506;504;31;4;611;3055;5;636;241;26;5;0;0;0;0;0;0;0;0;6;1035;5310;4;574;545;593;565;35;7;854;3879;4;909;467;29;8;411;1806;4;457;480;27;9;465;2108;4;518;524;27
25.09.20;14:15:00;1;369;4170;0;2;392;3528;4;438;392;30;3;247;2213;4;293;490;31;4;321;3004;5;334;234;26;5;0;0;0;0;0;0;0;0;6;586;5225;4;292;287;564;558;35;7;495;3805;4;540;460;29;8;229;1770;4;267;474;27;9;270;2068;4;311;510;27
25.09.20;14:10:00;1;282;4139;0;2;605;3495;4;659;402;31;3;379;2192;4;430;506;31;4;519;2977;5;540;238;26;5;0;0;0;0;0;0;0;0;6;966;5176;4;513;485;586;560;35;7;658;3764;4;711;473;29;8;304;1751;4;348;470;27;9;348;2046;4;392;521;28
25.09.20;14:05:00;1;275;4116;0;2;697;3445;4;756;406;31;3;441;2161;4;497;516;32;4;599;2934;5;623;239;27;5;0;0;0;0;0;0;0;0;6;1053;5093;4;560;526;589;560;35;7;772;3710;4;827;474;29;8;366;1726;4;412;474;27;9;417;2017;4;468;524;28
25.09.20;14:00:00;1;279;4092;0;2;1573;3386;4;1663;419;31;3;1008;2123;4;1088;532;32;4;1392;2883;5;1450;245;26;5;0;0;0;0;0;0;0;0;6;2333;4999;4;1219;1162;601;574;35;7;1858;3646;4;1960;485;29;8;905;1696;4;962;478;27;9;990;1983;4;1063;541;28